TimeCDT,TemperatureF,Dew PointF,Humidity,Sea Level PressureIn,VisibilityMPH,Wind Direction,Wind SpeedMPH,Gust SpeedMPH,PrecipitationIn,Events,Conditions,WindDirDegrees,DateUTC
12:53 AM,59.0,51.1,75,30.17,10.0,Calm,Calm,-,N/A,,Clear,0,2013-07-02 05:53:00
1:53 AM,57.0,51.1,81,30.17,10.0,Calm,Calm,-,N/A,,Clear,0,2013-07-02 06:53:00
2:53 AM,55.9,51.1,84,30.17,10.0,Calm,Calm,-,N/A,,Clear,0,2013-07-02 07:53:00
3:53 AM,54.0,48.9,83,30.17,10.0,Calm,Calm,-,N/A,,Clear,0,2013-07-02 08:53:00
4:53 AM,54.0,50.0,86,30.17,10.0,Calm,Calm,-,N/A,,Clear,0,2013-07-02 09:53:00
5:53 AM,51.1,48.9,92,30.18,8.0,Calm,Calm,-,N/A,,Clear,0,2013-07-02 10:53:00
6:53 AM,52.0,50.0,93,30.18,6.0,Calm,Calm,-,N/A,,Clear,0,2013-07-02 11:53:00
7:53 AM,59.0,55.0,87,30.18,8.0,Calm,Calm,-,N/A,,Clear,0,2013-07-02 12:53:00
9:53 AM,71.1,54.0,55,30.17,10.0,SE,3.5,-,N/A,,Clear,130,2013-07-02 14:53:00
10:53 AM,75.0,55.0,50,30.16,10.0,SSE,5.8,-,N/A,,Clear,150,2013-07-02 15:53:00
11:53 AM,79.0,52.0,39,30.15,10.0,SE,9.2,-,N/A,,Clear,140,2013-07-02 16:53:00
12:53 PM,80.1,50.0,35,30.14,10.0,Variable,6.9,16.1,N/A,,Clear,0,2013-07-02 17:53:00
1:53 PM,82.0,50.0,33,30.12,10.0,ESE,9.2,-,N/A,,Clear,120,2013-07-02 18:53:00
2:53 PM,81.0,48.0,31,30.11,10.0,Variable,5.8,-,N/A,,Clear,0,2013-07-02 19:53:00
3:53 PM,82.9,48.0,29,30.09,10.0,ESE,11.5,16.1,N/A,,Clear,110,2013-07-02 20:53:00
4:53 PM,82.9,46.9,28,30.08,10.0,East,5.8,-,N/A,,Clear,100,2013-07-02 21:53:00
5:53 PM,82.9,46.9,28,30.07,10.0,ESE,8.1,-,N/A,,Clear,120,2013-07-02 22:53:00
6:53 PM,81.0,50.0,34,30.06,10.0,ESE,11.5,-,N/A,,Clear,120,2013-07-02 23:53:00
7:53 PM,78.1,53.1,42,30.04,10.0,ESE,6.9,-,N/A,,Clear,120,2013-07-03 00:53:00
8:53 PM,72.0,53.1,51,30.04,10.0,ESE,6.9,-,N/A,,Clear,120,2013-07-03 01:53:00
9:53 PM,68.0,52.0,56,30.04,10.0,East,4.6,-,N/A,,Clear,100,2013-07-03 02:53:00
10:53 PM,64.0,53.1,67,30.05,10.0,ESE,4.6,-,N/A,,Clear,110,2013-07-03 03:53:00
11:53 PM,60.1,52.0,75,30.04,10.0,Calm,Calm,-,N/A,,Clear,0,2013-07-03 04:53:00